TITAN 3C TRANSTAGE R/B, 1863

Orbit data source: Space-Track

TITAN 3C TRANSTAGE R/B, 1863 is space debris in HEO originally from a launch on Tue, 21 Dec 1965 UTC launched from the Air Force Eastern Test Range (AFETR). Debris objects in space refer to the collection of defunct objects orbiting the Earth. Examples of debris include non-operational satellites, rocket bodies, and fragments generated from explosions, collisions, or faulty payload assembly.

Loading next visibility...
Identifier
1863, 1965-108A
Orbit
HEO
Country
Flag of USUS
Related business
Manufacturer
Martin Marietta
Mission
Spacecraft
Bus & Motor
TRANSTAGE, Unknown motor
Mass
~2,050 kg wet, 1,950 kg dry
Launch date (UTC)
1965-12-21 (60 years ago)
Launch vehicle
Unknown
Launch site
Air Force Eastern Test Range (AFETR)
Object type
Payload
Rocket body
Debris
Shape & HBR
Unknown
Radar Cross Section
Large (>1 m²)

Expand to show TLE details & history
Last TLE update: 1 day ago

TLE from 1 day ago
0 TITAN 3C TRANSTAGE R/B
1 01863U 65108A   25294.80412574  .00011416  00000-0  37471-2 0  9998
2 01863  26.8451  35.6384 6026371 183.0444 170.2961  3.97669369358835
Epoch: 2025-10-21T19:17Z
TLE epoch observation values (Epoch: 2025-10-21T19:17:56.463Z)
Latitude
0.00011°
Longitude
75.65901°
Altitude
20,544.37 km
Speed
2.435 km/s
True Right ascension
02h 22m 31s
True Declination
0° 00' 00"
Sunlit
Object was in daylight at epoch
Visualization orbit readout
Latitude
Unknown
Longitude
Unknown
Altitude
Unknown
Speed
Unknown
Apparent Right ascension
Unknown
Apparent Declination
Unknown
Sunlit
N/A
Visualization observer readout
Local Sidereal Time
18:58:17
Azimuth
Unknown
Elevation
Unknown
Doppler factor
Unknown
Orbital elements
Apogee altitude
20,598.105 km
Perigee altitude
310.438 km
Semi-major axis
16,832.409 km
Eccentricity
0.60264
Inclination
26.8451°
RAAN
35.6384°
Arg. of periapsis
183.0444°
True anomaly
176.98077°
Mean anomaly
170.2961°
Eccentric anomaly
173.9408°
Mean motion
0.99386 °/min
Orbital period
362.23 mins
BSTAR
0.0037471
Loading maneuver chart data...
Computing Atmospheric mass density...

Documentation

Showing up to 5 results
|